CZ-4B R/B (28059 NORAD) Tracking and Keplerian Element Data

This shows tracking and keplerian element data for the satellite.

Feedback or suggestion? Click here.




ElementValue
Catalog28059
NameCZ-4B R/B
Epoch Orbit7223
Epoch Day12.86690474
Epoch Year2024
RAAN331.0622
Inclination98.5898
Eccentricity0.0050401
Argument of Perigee112.6515
Mean Anonmoly248.0021
Mean Motion14.53495108
Decay Rate7.11E-06
L11 28059U 03049C 24012.86690474 .00000711 00000+0 17940-3 0 9995
L22 28059 98.5898 331.0622 0050401 112.6515 248.0021 14.53495108 72232



Live tracking and technical data element details for CZ-4B R/B (NORAD 28059). CZ-4B R/B can be tracked NOW for your location showing map with azimuth and elevation plus other details from your city location.







IsCatalogInMostPopularTable: catalog: 28059, numindb: 405
Update: records affected: 1



GetName: 28059 CZ-4B R/B

Hit Count: updated at: Sun, 14 Apr 2024 23:39:00 GMT